Total_Precipitation_Accumulation
0.00 0.00 0.00 0.00 0.00 0.00 0.00 0.00 0.00 0.00 0.00 0.01 0.06 0.15 0.28 0.41 0.32 0.34 0.35 0.26 0.18 0.14 0.12 0.11 0.10 0.06 0.05 0.01 0.00 0.00 0.00 0.00 0.00 0.00 0.00 0.00 0.00 0.00 0.00 0.00 0.00 0.06 0.25
0.00 0.00 0.00 0.00 0.00 0.00 0.00 0.00 0.00 0.00 0.02 0.10 0.16 0.29 0.43 0.41 0.31 0.36 0.32 0.22 0.17 0.11 0.10 0.11 0.09 0.07 0.05 0.02 0.01 0.00 0.00 0.00 0.00 0.00 0.00 0.00 0.00 0.00 0.01 0.00 0.02 0.10 0.28
0.00 0.00 0.00 0.00 0.00 0.00 0.00 0.00 0.00 0.02 0.06 0.12 0.21 0.47 0.54 0.42 0.39 0.37 0.27 0.19 0.12 0.10 0.11 0.11 0.06 0.07 0.05 0.04 0.01 0.00 0.00 0.00 0.00 0.00 0.00 0.00 0.00 0.01 0.01 0.01 0.06 0.14 0.39
0.00 0.00 0.00 0.00 0.00 0.00 0.00 0.00 0.01 0.06 0.12 0.17 0.30 0.53 0.57 0.51 0.47 0.37 0.18 0.17 0.14 0.16 0.17 0.13 0.05 0.04 0.02 0.02 0.01 0.00 0.00 0.00 0.00 0.00 0.00 0.00 0.01 0.01 0.02 0.02 0.14 0.27 0.47
0.00 0.00 0.00 0.00 0.00 0.00 0.00 0.00 0.03 0.11 0.17 0.23 0.26 0.35 0.43 0.58 0.58 0.44 0.26 0.17 0.21 0.22 0.16 0.08 0.03 0.03 0.02 0.00 0.00 0.00 0.00 0.00 0.00 0.00 0.00 0.00 0.01 0.03 0.03 0.06 0.21 0.47 0.96
0.00 0.00 0.00 0.00 0.00 0.00 0.00 0.00 0.04 0.13 0.19 0.19 0.18 0.28 0.31 0.52 0.64 0.56 0.44 0.32 0.24 0.18 0.12 0.08 0.03 0.05 0.02 0.01 0.01 0.01 0.00 0.00 0.00 0.00 0.00 0.00 0.01 0.05 0.04 0.13 0.31 0.78 1.87
0.00 0.00 0.00 0.00 0.00 0.00 0.01 0.01 0.05 0.14 0.15 0.12 0.17 0.22 0.36 0.49 0.50 0.56 0.59 0.46 0.42 0.30 0.19 0.13 0.08 0.05 0.02 0.01 0.01 0.01 0.00 0.00 0.00 0.00 0.00 0.00 0.05 0.10 0.05 0.19 0.51 0.95 1.56
0.00 0.00 0.00 0.00 0.00 0.02 0.01 0.02 0.05 0.11 0.13 0.13 0.22 0.26 0.36 0.53 0.56 0.52 0.55 0.53 0.49 0.44 0.38 0.25 0.17 0.10 0.05 0.05 0.03 0.01 0.00 0.00 0.00 0.01 0.11 0.12 0.11 0.03 0.08 0.38 0.77 0.81 1.09
0.00 0.00 0.00 0.00 0.01 0.02 0.02 0.03 0.06 0.08 0.09 0.09 0.21 0.27 0.33 0.56 0.61 0.53 0.45 0.33 0.33 0.39 0.39 0.33 0.21 0.13 0.16 0.16 0.05 0.03 0.03 0.05 0.10 0.21 0.30 0.29 0.20 0.09 0.18 0.37 0.46 0.58 0.99
0.00 0.00 0.00 0.00 0.01 0.04 0.06 0.07 0.09 0.11 0.13 0.07 0.11 0.31 0.33 0.44 0.61 0.55 0.43 0.29 0.28 0.31 0.33 0.40 0.43 0.36 0.33 0.24 0.16 0.13 0.12 0.38 0.31 0.21 0.28 0.24 0.10 0.13 0.22 0.12 0.19 0.27 0.44
0.00 0.00 0.00 0.01 0.02 0.04 0.07 0.06 0.08 0.08 0.06 0.08 0.11 0.17 0.31 0.40 0.41 0.41 0.34 0.33 0.36 0.29 0.35 0.50 0.56 0.41 0.30 0.21 0.16 0.11 0.25 0.21 0.14 0.18 0.25 0.19 0.08 0.20 0.26 0.16 0.14 0.13 0.08
0.00 0.00 0.00 0.01 0.02 0.03 0.05 0.05 0.07 0.07 0.04 0.03 0.03 0.09 0.17 0.26 0.30 0.32 0.30 0.31 0.24 0.23 0.34 0.45 0.45 0.35 0.30 0.27 0.20 0.22 0.21 0.09 0.09 0.12 0.13 0.09 0.12 0.16 0.21 0.23 0.40 0.26 0.05
0.00 0.00 0.00 0.01 0.02 0.03 0.04 0.04 0.06 0.08 0.09 0.09 0.08 0.12 0.19 0.20 0.22 0.21 0.20 0.18 0.17 0.19 0.31 0.41 0.35 0.31 0.26 0.26 0.26 0.20 0.11 0.06 0.06 0.07 0.10 0.19 0.19 0.12 0.15 0.22 0.39 0.44 0.25
0.00 0.00 0.00 0.00 0.00 0.01 0.01 0.02 0.06 0.10 0.10 0.10 0.12 0.18 0.22 0.24 0.29 0.21 0.15 0.14 0.18 0.24 0.27 0.32 0.31 0.25 0.23 0.29 0.21 0.16 0.10 0.10 0.09 0.09 0.14 0.22 0.14 0.08 0.17 0.24 0.34 0.37 0.18
0.00 0.00 0.00 0.00 0.00 0.00 0.01 0.01 0.08 0.17 0.16 0.15 0.16 0.13 0.15 0.34 0.43 0.28 0.21 0.22 0.29 0.33 0.21 0.21 0.20 0.19 0.26 0.25 0.19 0.21 0.22 0.20 0.16 0.16 0.14 0.18 0.09 0.11 0.17 0.19 0.11 0.09 0.06
0.00 0.00 0.00 0.00 0.00 0.00 0.00 0.00 0.03 0.10 0.13 0.16 0.17 0.18 0.25 0.35 0.31 0.28 0.26 0.27 0.32 0.19 0.16 0.22 0.26 0.26 0.31 0.30 0.29 0.31 0.32 0.28 0.23 0.20 0.18 0.10 0.12 0.16 0.09 0.12 0.11 0.05 0.08
0.00 0.00 0.00 0.00 0.00 0.00 0.00 0.00 0.01 0.03 0.06 0.09 0.14 0.23 0.29 0.27 0.26 0.27 0.23 0.23 0.22 0.09 0.14 0.19 0.27 0.31 0.38 0.37 0.38 0.36 0.36 0.28 0.29 0.22 0.14 0.11 0.15 0.14 0.11 0.08 0.07 0.11 0.14
0.00 0.00 0.00 0.00 0.00 0.00 0.00 0.00 0.00 0.00 0.03 0.07 0.08 0.20 0.31 0.31 0.27 0.30 0.25 0.17 0.20 0.12 0.15 0.22 0.31 0.38 0.37 0.32 0.27 0.21 0.24 0.33 0.31 0.21 0.18 0.23 0.22 0.19 0.20 0.06 0.11 0.18 0.10
0.00 0.00 0.00 0.00 0.00 0.00 0.00 0.00 0.00 0.00 0.00 0.01 0.02 0.10 0.18 0.21 0.22 0.22 0.15 0.11 0.14 0.19 0.24 0.29 0.31 0.28 0.24 0.19 0.17 0.18 0.22 0.29 0.25 0.22 0.26 0.26 0.26 0.25 0.18 0.19 0.16 0.18 0.10
0.00 0.00 0.00 0.00 0.00 0.00 0.00 0.00 0.00 0.00 0.00 0.00 0.00 0.02 0.05 0.05 0.08 0.09 0.08 0.08 0.10 0.16 0.16 0.16 0.16 0.17 0.17 0.16 0.16 0.16 0.21 0.29 0.27 0.22 0.22 0.17 0.14 0.12 0.08 0.10 0.06 0.04 0.10
0.00 0.00 0.00 0.00 0.00 0.00 0.00 0.00 0.00 0.00 0.00 0.00 0.00 0.00 0.00 0.00 0.01 0.03 0.04 0.06 0.07 0.07 0.06 0.06 0.08 0.10 0.12 0.12 0.12 0.13 0.12 0.12 0.09 0.10 0.10 0.08 0.06 0.05 0.04 0.06 0.02 0.01 0.01
0.00 0.00 0.00 0.00 0.00 0.00 0.00 0.00 0.00 0.00 0.00 0.00 0.00 0.00 0.00 0.00 0.00 0.00 0.01 0.02 0.03 0.04 0.06 0.05 0.04 0.04 0.04 0.04 0.04 0.03 0.01 0.01 0.01 0.01 0.02 0.02 0.02 0.01 0.00 0.00 0.01 0.00 0.00
0.00 0.00 0.00 0.00 0.00 0.00 0.00 0.00 0.00 0.00 0.00 0.00 0.00 0.00 0.00 0.00 0.00 0.00 0.00 0.00 0.00 0.00 0.01 0.02 0.02 0.02 0.02 0.02 0.01 0.00 0.00 0.00 0.01 0.01 0.01 0.00 0.00 0.00 0.00 0.00 0.00 0.00 0.00
0.00 0.00 0.00 0.00 0.00 0.00 0.00 0.00 0.00 0.00 0.00 0.00 0.00 0.00 0.00 0.00 0.00 0.00 0.00 0.00 0.00 0.00 0.00 0.00 0.00 0.00 0.00 0.00 0.00 0.00 0.00 0.00 0.00 0.00 0.00 0.00 0.00 0.00 0.00 0.00 0.00 0.00 0.00
0.00 0.00 0.00 0.00 0.00 0.00 0.00 0.00 0.00 0.00 0.00 0.00 0.00 0.00 0.00 0.00 0.00 0.00 0.00 0.00 0.00 0.00 0.00 0.00 0.00 0.00 0.00 0.00 0.00 0.00 0.00 0.00 0.00 0.00 0.00 0.00 0.00 0.00 0.00 0.00 0.00 0.00 0.00
0.00 0.00 0.00 0.00 0.00 0.00 0.00 0.00 0.00 0.00 0.00 0.00 0.00 0.00 0.00 0.00 0.00 0.00 0.00 0.00 0.00 0.00 0.00 0.00 0.00 0.00 0.00 0.00 0.00 0.00 0.00 0.00 0.00 0.00 0.00 0.00 0.00 0.00 0.00 0.00 0.00 0.00 0.00